Theta_e
315 315 314 313 315 315 314 312 308 307 306 306 300 300 301 302 301 301 301 305 308 307 303 303 304 305 306 303 302 301 306 306 306 304 307 302 304 301 300 301 301 301 305 303 308
315 314 313 310 311 312 310 309 308 306 306 306 300 300 301 302 301 300 301 305 305 303 302 303 302 303 302 303 302 304 304 305 302 301 303 302 302 301 302 301 302 303 302 302 308
314 315 313 309 310 309 308 308 308 306 305 306 300 300 302 303 301 299 301 302 303 303 303 302 302 302 303 303 302 301 304 301 301 304 301 302 301 299 302 303 302 302 304 302 304
315 315 313 309 308 308 307 306 307 305 305 305 300 300 301 304 305 300 301 303 303 303 303 301 300 302 301 303 301 303 301 301 302 300 300 301 299 300 300 302 299 299 302 302 304
314 315 314 311 309 307 306 305 306 305 306 303 300 300 303 299 299 300 302 303 303 303 302 301 301 301 301 301 301 302 301 301 300 301 301 301 300 299 299 298 297 301 301 301 303
315 315 315 312 308 304 305 305 306 304 304 302 300 302 302 302 299 301 302 303 303 302 302 301 301 300 300 301 300 301 300 301 301 301 301 301 300 300 299 298 297 299 301 301 301
315 316 316 313 309 304 305 305 305 304 304 301 301 299 298 299 299 301 302 302 303 302 302 303 303 301 300 301 301 300 302 302 301 301 301 299 301 299 298 297 299 298 300 301 300
316 316 315 312 307 304 305 306 304 301 300 300 302 299 297 298 299 302 301 302 303 302 302 302 302 300 300 300 303 301 301 302 302 299 300 300 305 302 299 299 299 298 297 298 301
316 316 314 309 306 305 305 305 304 302 303 302 301 299 299 298 300 301 301 302 302 303 303 303 301 299 301 303 303 300 302 304 303 299 299 300 303 302 299 299 299 298 297 297 297
316 316 315 307 304 305 305 304 302 302 300 302 299 303 298 298 299 301 302 302 301 302 301 301 299 299 296 301 304 304 301 302 302 299 299 301 302 302 300 299 300 299 298 297 297
316 316 313 305 304 305 305 308 304 302 297 295 295 296 297 299 300 300 301 301 301 300 301 301 300 298 300 300 300 300 302 303 302 299 298 299 297 300 299 297 297 296 296 296 296
315 316 312 304 305 305 304 300 300 298 298 295 295 296 297 298 301 300 301 300 298 300 302 300 300 300 300 300 301 302 301 301 300 298 297 296 297 297 296 296 296 297 296 295 295
316 315 306 305 307 304 302 300 301 302 299 301 296 296 297 300 300 300 300 298 298 299 298 302 301 300 301 299 302 299 300 300 300 298 294 293 299 298 297 295 297 296 295 294 294
315 312 304 305 306 303 302 302 302 301 298 301 300 298 300 299 301 299 299 299 298 297 299 300 299 301 300 300 298 302 297 298 298 295 297 292 301 298 296 296 296 295 294 294 294
312 305 305 305 304 302 302 302 302 302 302 300 300 299 300 301 300 301 299 298 300 299 296 299 299 299 300 299 297 300 296 296 293 289 292 294 293 297 296 299 297 295 294 294 294
305 304 305 305 304 303 302 302 302 303 301 300 300 301 300 298 300 299 299 297 297 300 298 298 296 296 298 297 297 295 294 292 289 286 293 286 292 300 300 298 295 295 293 292 293
304 304 304 304 302 304 303 301 303 304 297 299 302 302 299 300 301 299 299 297 299 294 293 295 298 296 296 298 297 292 289 290 293 293 297 278 292 299 299 295 296 294 292 290 291
304 304 304 304 305 305 301 299 300 295 295 300 302 300 301 299 299 299 301 298 297 295 289 289 292 292 295 297 296 295 289 292 289 295 294 279 292 300 295 292 291 291 290 290 291
304 303 303 303 305 305 298 298 297 298 299 301 298 296 294 300 297 295 299 297 298 296 293 291 293 294 295 294 292 293 289 289 283 274 287 289 291 294 295 292 291 291 292 290 289
306 302 301 303 301 298 296 299 296 298 301 300 297 296 291 291 297 290 295 299 299 296 290 294 290 288 294 293 292 290 290 291 287 290 289 289 282 296 291 291 289 291 289 289 289
305 300 299 301 296 293 295 289 290 297 299 301 299 296 296 293 295 292 293 299 297 296 292 288 286 288 294 287 289 289 288 287 288 290 292 290 294 287 287 285 287 284 286 284 285
299 298 298 298 294 283 288 288 298 300 299 300 298 297 295 295 295 290 298 296 296 293 297 294 292 288 289 292 292 291 288 291 293 288 285 290 293 289 285 279 277 287 286 288 287
294 293 296 295 291 287 295 296 298 300 299 300 299 299 297 292 291 298 299 298 295 297 296 295 286 283 288 288 290 291 292 289 286 290 288 292 293 284 277 281 279 280 286 287 289
290 291 289 288 287 291 292 294 296 297 299 297 299 299 298 290 293 292 300 298 297 297 299 296 292 286 288 286 285 290 292 291 290 286 291 294 290 289 291 288 286 287 286 284 285
289 289 287 289 289 292 293 293 296 296 297 297 295 297 294 291 294 291 298 298 297 298 297 293 289 292 289 283 284 288 288 289 289 289 294 294 293 283 282 282 282 282 282 283 284
291 290 288 294 294 295 293 295 294 294 296 297 292 296 294 289 293 294 296 297 296 296 296 294 286 288 287 293 294 295 295 290 293 294 291 294 295 281 280 274 281 282 281 282 284
293 293 291 294 293 291 291 296 295 295 296 296 296 297 297 296 294 295 294 295 295 295 295 294 286 284 285 285 284 288 288 292 289 283 291 289 287 277 279 280 277 282 284 284 285
Wind_Speed
16 17 16 16 15 15 14 15 16 15 13 8 7 5 3 3 7 3 7 9 9 11 6 1 4 4 3 3 4 2 4 2 3 5 2 3 2 1 1 3 2 2 2 0 22
15 17 18 19 18 16 16 16 16 16 13 7 5 4 3 2 3 11 8 10 8 6 2 4 3 3 3 2 3 4 4 7 1 2 1 2 1 2 1 2 3 1 2 8 27
14 17 18 18 17 16 17 16 15 16 11 4 3 3 3 2 2 2 12 10 5 3 1 2 4 2 3 2 2 1 4 2 1 1 0 1 1 3 2 5 6 5 5 11 17
13 15 17 17 17 17 17 16 16 13 7 2 2 1 3 2 1 5 12 9 4 2 3 2 3 3 3 3 1 3 1 1 2 1 1 2 4 4 3 3 2 2 5 12 15
13 15 16 17 18 18 17 16 14 9 4 1 2 1 2 5 2 9 10 8 4 3 4 2 3 3 5 4 3 2 2 3 1 3 1 2 3 4 7 8 5 2 6 10 13
14 15 16 18 18 19 16 16 10 5 2 2 1 2 1 3 3 11 8 7 8 4 4 5 3 3 5 3 3 2 3 2 3 3 2 3 2 3 1 1 2 5 6 7 12
14 15 16 18 19 19 18 13 5 3 2 1 2 3 6 3 3 11 6 8 9 5 3 4 3 3 3 4 1 3 2 2 5 4 3 1 3 6 4 3 3 5 5 6 10
14 16 17 18 18 18 17 7 4 2 3 3 2 1 3 3 3 12 7 5 7 7 7 5 7 6 4 2 5 4 4 2 2 7 2 2 6 2 2 1 4 4 5 6 7
15 16 17 18 18 17 13 4 1 4 3 1 1 2 2 2 3 11 9 4 4 5 6 5 5 4 4 4 4 7 2 1 1 4 4 4 6 2 2 4 8 6 6 6 7
15 16 17 17 16 16 9 1 7 1 2 2 4 4 5 3 5 8 5 5 5 1 3 7 5 4 5 5 2 1 2 2 2 6 5 4 11 12 6 7 10 7 6 7 7
15 16 15 15 15 13 5 3 2 3 12 4 0 2 2 6 3 8 6 2 3 7 4 4 7 3 2 2 1 2 2 1 1 3 5 2 9 19 9 7 8 7 6 7 8
17 14 14 13 13 9 3 5 3 3 6 3 2 2 2 4 3 12 8 3 6 3 4 6 4 2 1 4 4 5 2 3 3 3 2 6 16 12 5 4 3 3 5 6 7
14 11 10 10 5 3 9 5 4 2 5 3 2 3 3 4 3 7 6 3 5 5 5 6 0 3 3 6 4 3 3 2 3 6 3 8 7 5 3 4 3 4 3 4 6
13 8 8 6 1 2 4 3 2 2 4 5 4 4 2 1 4 3 6 3 6 4 4 6 4 3 4 5 2 2 2 2 3 4 2 5 4 7 5 9 5 6 5 6 7
8 4 4 2 2 3 1 2 3 1 3 3 4 3 3 5 2 6 6 6 4 3 5 3 4 5 7 2 2 2 3 3 2 4 3 7 4 7 5 5 6 8 8 7 6
2 2 2 1 4 3 3 4 2 6 4 2 3 4 4 7 5 6 5 9 4 5 6 3 1 3 2 2 2 3 3 5 3 3 3 3 3 5 2 3 7 6 8 8 7
5 4 2 3 3 3 4 1 5 3 3 4 2 3 4 5 4 7 5 6 3 5 3 5 3 3 3 1 1 4 6 4 5 4 4 3 2 8 5 6 4 8 10 11 7
4 4 12 9 5 4 1 5 4 2 4 1 1 2 4 4 4 6 2 3 4 4 4 4 6 4 6 3 3 4 5 5 4 1 4 3 4 4 2 7 7 3 7 8 10
6 4 4 7 4 2 5 4 6 4 3 6 2 5 4 1 3 4 3 2 1 2 5 4 2 2 3 2 2 3 3 3 7 1 3 2 7 9 3 2 7 10 11 11 9
2 3 5 5 3 2 4 3 2 1 1 1 3 2 3 3 2 5 1 1 1 2 3 4 3 2 2 1 4 4 3 4 3 1 4 4 5 5 4 6 6 9 7 8 7
2 3 6 3 2 5 3 5 2 3 1 3 3 2 1 4 2 2 3 1 2 1 4 4 4 5 1 2 6 2 2 4 3 3 5 2 6 8 7 6 1 5 5 5 6
2 2 7 1 4 1 2 4 2 2 1 2 3 3 3 4 3 2 3 5 0 4 2 1 4 2 6 1 1 4 5 3 4 5 1 2 7 4 7 5 4 7 7 6 6
2 0 4 2 2 1 1 2 1 1 1 1 2 2 2 3 2 2 3 1 4 2 5 4 2 3 7 4 4 3 4 4 3 2 6 4 5 2 2 2 3 6 7 8 11
3 2 4 4 1 6 4 2 2 1 1 2 3 3 3 3 3 4 4 0 1 1 2 4 3 7 6 7 4 3 4 5 5 3 4 12 8 6 11 13 12 12 8 6 8
4 1 3 1 3 2 2 5 4 3 1 1 4 3 4 3 2 2 1 1 1 1 2 4 4 2 5 5 3 6 6 7 10 8 8 17 14 4 5 3 5 6 7 8 8
3 4 2 2 0 1 3 4 6 3 5 2 4 4 4 5 4 6 5 3 5 0 5 1 3 1 5 6 8 14 11 14 19 17 14 19 30 3 3 4 6 9 8 9 9
3 3 3 0 2 3 3 5 6 6 2 1 5 5 3 4 4 1 3 1 3 6 5 4 4 2 6 4 6 9 13 18 5 4 8 8 7 2 5 6 5 9 12 12 13
Wind_Direction
6 4 2 2 358 359 354 357 353 349 348 348 352 359 18 75 47 82 39 344 326 329 340 39 98 103 68 64 46 112 65 170 227 162 237 2 169 14 336 121 232 194 141 144 160
1 4 2 358 354 355 357 349 346 341 339 335 350 4 40 117 58 57 9 342 333 341 22 123 98 111 48 60 20 87 124 215 171 176 184 306 330 341 117 182 229 239 84 138 161
358 358 356 356 352 352 348 344 343 338 332 324 351 13 76 110 84 4 351 350 347 345 78 104 111 78 82 61 31 136 173 176 157 50 341 280 260 320 207 235 222 203 166 156 167
351 353 352 352 351 350 346 343 340 341 338 341 347 23 74 112 112 347 347 354 7 66 113 108 80 78 96 126 39 107 88 100 152 12 32 309 316 309 229 227 42 277 159 167 180
340 347 346 347 344 344 344 343 342 348 359 14 345 26 124 56 38 351 354 10 37 81 74 84 79 115 130 120 113 104 141 66 60 41 53 314 267 265 261 262 270 29 162 184 193
334 340 342 342 340 340 344 340 339 353 12 11 5 110 113 93 17 359 6 27 51 76 61 49 121 133 103 80 98 124 94 83 30 10 36 2 292 5 239 8 231 213 209 201 203
327 334 338 338 336 342 344 340 344 7 14 23 81 94 60 126 22 9 18 39 44 72 96 74 118 77 127 96 130 115 94 89 17 356 354 347 255 236 257 304 300 232 240 226 220
322 332 332 334 336 342 345 354 4 46 76 89 78 88 89 30 46 20 40 51 57 70 86 83 96 99 59 132 31 54 46 68 3 358 353 7 274 303 29 296 292 268 252 247 241
321 324 328 332 336 340 344 2 41 86 61 80 72 114 105 21 43 8 18 20 46 72 66 78 73 81 31 74 29 15 164 21 36 46 326 39 276 271 18 350 290 278 265 255 259
309 314 322 329 334 336 339 142 58 59 38 62 64 62 17 324 328 348 11 33 56 69 29 41 50 69 33 51 213 272 40 341 310 342 357 315 274 283 265 265 269 278 274 269 258
300 308 318 328 328 334 338 243 14 2 40 87 240 100 350 332 23 10 1 14 21 50 57 12 67 77 11 12 64 104 82 339 17 359 337 332 286 284 298 253 279 283 285 283 276
286 298 315 324 325 337 345 75 89 145 90 27 89 75 43 352 17 354 9 76 61 72 337 31 77 321 86 31 81 55 89 336 295 20 345 352 292 290 299 265 231 297 315 313 307
275 294 314 322 329 354 69 90 113 104 90 21 47 54 324 22 67 332 20 72 83 53 21 103 162 341 110 34 53 44 104 14 253 330 76 320 301 322 319 345 334 312 342 334 316
263 297 316 316 327 47 62 80 139 84 76 315 343 2 3 41 49 344 15 113 40 144 83 76 338 58 71 72 33 73 343 33 11 38 289 10 277 304 344 332 14 355 348 344 348
260 300 327 357 110 72 88 94 129 48 43 314 335 320 30 76 314 1 16 29 76 81 83 257 21 41 62 18 16 131 46 62 70 84 59 351 74 272 357 12 5 1 350 343 348
77 277 194 60 64 76 94 121 103 47 258 340 312 348 46 19 20 315 31 45 136 79 38 108 69 58 110 89 64 107 82 41 61 86 38 271 85 292 358 334 320 320 338 341 340
72 60 126 86 89 89 115 48 42 129 344 284 14 27 89 4 27 24 29 22 80 78 355 357 6 354 35 113 50 65 54 349 1 12 212 331 14 243 288 306 273 324 343 343 345
93 96 76 79 79 109 72 54 96 233 217 171 108 77 89 353 32 357 70 43 44 76 96 128 334 5 349 73 168 55 132 144 208 271 273 355 237 240 140 328 337 32 334 1 10
128 69 49 27 68 95 75 71 207 194 136 157 84 72 343 50 121 69 35 141 330 47 137 123 303 323 29 29 64 243 57 161 103 64 33 271 290 315 115 81 32 35 36 23 6
108 101 37 10 49 68 74 221 139 300 320 137 153 120 161 263 94 66 345 239 212 357 144 196 55 256 266 72 35 131 143 53 10 88 294 287 275 238 312 347 1 29 10 358 353
120 64 1 21 40 47 147 204 235 257 313 89 161 121 148 160 119 150 178 207 146 117 81 129 89 282 108 187 181 21 16 44 114 127 176 243 262 215 208 209 188 299 292 285 302
70 50 1 41 50 30 114 178 160 18 12 42 100 113 148 162 107 110 178 200 117 152 84 87 131 182 216 289 212 156 190 156 131 255 215 155 270 197 219 198 175 358 332 336 332
84 117 4 70 128 8 124 119 148 117 88 124 95 47 122 153 84 183 205 125 139 132 163 181 328 14 342 356 350 221 204 144 122 89 202 154 251 334 321 42 308 254 353 351 341
85 39 337 50 26 132 143 170 95 260 137 94 130 115 125 51 359 175 204 139 157 168 119 136 153 172 195 210 137 185 201 199 144 140 196 229 268 322 328 357 356 358 339 324 314
37 212 186 272 334 99 119 142 144 173 314 41 14 177 160 123 58 223 210 186 72 296 94 109 199 234 257 204 195 211 196 199 203 198 208 265 253 215 256 278 275 272 304 316 308
117 131 13 124 162 124 330 214 156 198 149 238 152 166 156 157 189 194 160 195 199 117 158 65 257 88 278 285 254 268 241 221 233 239 255 267 276 207 229 297 327 311 297 288 289
80 98 97 274 152 113 213 174 199 145 232 162 166 130 185 220 195 162 213 174 155 163 174 156 133 70 270 344 334 299 236 222 194 199 210 223 253 296 318 302 281 294 294 291 293